GSAT0213 (GALILEO 17) (41861 NORAD) Tracking and Keplerian Element Data

This shows tracking and keplerian element data for the satellite.

Feedback or suggestion? Click here.




ElementValue
Catalog41861
NameGSAT0213 (GALILEO 17)
Epoch Orbit5113
Epoch Day33.78516862
Epoch Year2025
RAAN114.9251
Inclination55.2018
Eccentricity0.0004226
Argument of Perigee275.9074
Mean Anonmoly84.0951
Mean Motion1.70475039
Decay Rate-2E-08
L11 41861U 16069C 25033.78516862 -.00000002 00000+0 00000+0 0 9999
L22 41861 55.2018 114.9251 0004226 275.9074 84.0951 1.70475039 51137



Live tracking and technical data element details for GSAT0213 (GALILEO 17) (NORAD 41861). GSAT0213 (GALILEO 17) can be tracked NOW for your location showing map with azimuth and elevation plus other details from your city location.







IsCatalogInMostPopularTable: catalog: 41861, numindb: 776
Update: records affected: 1



GetName: 41861 GSAT0213 (GALILEO 17)

Hit Count: updated at: Wed, 18 Jun 2025 05:46:22 GMT